Torna al catalogo

JILIN-1 GAOFEN 03D-47

AttivoScienzaSSO
NORAD 54692·PAYLOAD·🇨🇳 China
Questo nome del satellite non è ancora stato confermato da fonti ufficiali.

Lanciato Dec 9, 2022 da Yellow Sea Launch Area

Loading…

Prossimi Passaggi (prossime 24 ore)

TLE

AggiornatoSource: Space-Track

Epoca: Sep 14, 2026, 15:30 UTC

1 54692U 22167L   26257.64599890  .00008206  00000-0  24136-3 0  9991
2 54692  97.7004  71.0537 0007976 152.3744 207.7924 15.35339316209060

Traccia JILIN-1 GAOFEN 03D-47 in tempo reale con AllMySat

Download on the App Store